Location: La Trinit�
(48.1620°N, 3.4512°W)
Time: 09:34:35
(UTC+00:00)

SeaSat 1 - Pass Details

Date: 08 May 2021
Orbit: 744 x 747 km, 108.0° (Epoch: 12 June)

Event Time Altitude Azimuth Distance (km) Brightness Sun altitude
Rises 23:31:55 0° 36° (NE) 3,201 6.3 -23.9°
Reaches altitude 10° 23:34:26 10° 47° (NE) 2,272 5.3 -24.0°
Enters shadow 23:38:20 31° 97° (E) 1,291 3.5 -24.1°
